When you browse on this site, cookies collect data to enhance your experience and personalize the content and advertising you see.
Visit our Privacy Policy to learn more. By continuing to use the site, you agree to this use of cookies and data.

Meteo pe oră la Aligarh

Astăzi, 14 August, Vineri

Timp Temperatura Precipitaţii Vânt Presiune Umiditate
00:00 +28°C° 0 mm 2 m/s 731 mmHg 88%
01:00 +28°C° 0 mm 3 m/s 731 mmHg 88%
02:00 +28°C° 0 mm 3 m/s 731 mmHg 89%
03:00 +28°C° 0.2 mm 3 m/s 731 mmHg 90%
04:00 +28°C° 0.2 mm 3 m/s 731 mmHg 90%
05:00 +28°C° 0 mm 2 m/s 730 mmHg 93%
06:00 +29°C° 0.1 mm 2 m/s 731 mmHg 89%
07:00 +30°C° 0.1 mm 3 m/s 731 mmHg 85%
08:00 +31°C° 0.1 mm 3 m/s 731 mmHg 82%
09:00 +33°C° 0.1 mm 4 m/s 731 mmHg 75%
10:00 +35°C° 0.1 mm 4 m/s 731 mmHg 68%
11:00 +35°C° 0 mm 4 m/s 732 mmHg 64%
12:00 +36°C° 0.2 mm 4 m/s 731 mmHg 62%
13:00 +37°C° 0.2 mm 4 m/s 730 mmHg 59%
14:00 +37°C° 0.2 mm 4 m/s 730 mmHg 57%
15:00 +37°C° 1.4 mm 4 m/s 729 mmHg 59%
16:00 +37°C° 1.4 mm 3 m/s 729 mmHg 62%
17:00 +36°C° 1.4 mm 2 m/s 728 mmHg 64%
18:00 +35°C° 2.1 mm 2 m/s 729 mmHg 68%
19:00 +34°C° 2.1 mm 2 m/s 729 mmHg 72%
20:00 +32°C° 2.1 mm 2 m/s 729 mmHg 76%
21:00 +32°C° 1.6 mm 2 m/s 729 mmHg 77%
22:00 +31°C° 1.6 mm 2 m/s 729 mmHg 78%
23:00 +31°C° 1.6 mm 2 m/s 730 mmHg 80%

Mâine, 15 August, Sâmbătă

Timp Temperatura Precipitaţii Vânt Presiune Umiditate
00:00 +31°C° 1.4 mm 2 m/s 729 mmHg 80%
01:00 +31°C° 1.4 mm 2 m/s 729 mmHg 81%
02:00 +31°C° 1.4 mm 2 m/s 729 mmHg 82%
03:00 +30°C° 2.3 mm 2 m/s 729 mmHg 83%
04:00 +30°C° 2.3 mm 2 m/s 729 mmHg 84%
05:00 +30°C° 2.3 mm 2 m/s 729 mmHg 85%
06:00 +31°C° 1.4 mm 2 m/s 730 mmHg 82%
07:00 +31°C° 1.4 mm 2 m/s 730 mmHg 79%
08:00 +32°C° 1.4 mm 2 m/s 730 mmHg 77%
09:00 +34°C° 0.2 mm 2 m/s 730 mmHg 71%
10:00 +36°C° 0.2 mm 3 m/s 730 mmHg 66%
11:00 +37°C° 0.2 mm 3 m/s 730 mmHg 60%
12:00 +37°C° 0 mm 3 m/s 730 mmHg 59%
13:00 +38°C° 0 mm 3 m/s 729 mmHg 57%
14:00 +38°C° 0 mm 3 m/s 729 mmHg 55%
15:00 +38°C° 0 mm 2 m/s 729 mmHg 57%
16:00 +38°C° 0 mm 2 m/s 728 mmHg 60%
17:00 +38°C° 0 mm 2 m/s 728 mmHg 62%
18:00 +36°C° 0.1 mm 2 m/s 729 mmHg 65%
19:00 +35°C° 0.1 mm 2 m/s 729 mmHg 67%
20:00 +34°C° 0.1 mm 3 m/s 729 mmHg 70%
21:00 +34°C° 0.2 mm 3 m/s 730 mmHg 72%
22:00 +33°C° 0.2 mm 3 m/s 730 mmHg 75%
23:00 +33°C° 0.2 mm 3 m/s 730 mmHg 77%

Poimâine, 16 August, Duminică

Timp Temperatura Precipitaţii Vânt Presiune Umiditate
00:00 +33°C° 0.2 mm 3 m/s 730 mmHg 78%
01:00 +31°C° 0.2 mm 3 m/s 730 mmHg 79%
02:00 +31°C° 0.2 mm 3 m/s 729 mmHg 80%
03:00 +31°C° 0.3 mm 3 m/s 730 mmHg 80%
04:00 +31°C° 0.3 mm 2 m/s 730 mmHg 80%
05:00 +31°C° 0.3 mm 2 m/s 730 mmHg 80%
06:00 +33°C° 1 mm 3 m/s 730 mmHg 77%
07:00 +33°C° 1 mm 3 m/s 731 mmHg 74%
08:00 +34°C° 1 mm 3 m/s 731 mmHg 71%
09:00 +35°C° 0.1 mm 4 m/s 731 mmHg 68%
10:00 +35°C° 0.1 mm 4 m/s 731 mmHg 65%
11:00 +36°C° 0.1 mm 4 m/s 731 mmHg 61%
12:00 +37°C° 0 mm 4 m/s 731 mmHg 59%
13:00 +37°C° 0 mm 3 m/s 730 mmHg 56%
14:00 +38°C° 0 mm 3 m/s 730 mmHg 54%
15:00 +38°C° 0 mm 3 m/s 730 mmHg 56%
16:00 +38°C° 0 mm 2 m/s 729 mmHg 57%
17:00 +37°C° 0 mm 2 m/s 729 mmHg 59%
18:00 +36°C° 0 mm 2 m/s 729 mmHg 63%
19:00 +35°C° 0 mm 2 m/s 730 mmHg 67%
20:00 +34°C° 0 mm 3 m/s 730 mmHg 70%
21:00 +33°C° 0 mm 3 m/s 730 mmHg 72%
22:00 +33°C° 0 mm 3 m/s 731 mmHg 73%
23:00 +33°C° 0 mm 3 m/s 731 mmHg 75%

17 August, Luni

Timp Temperatura Precipitaţii Vânt Presiune Umiditate
00:00 +32°C° 1.8 mm 4 m/s 731 mmHg 78%
01:00 +30°C° 1.8 mm 5 m/s 731 mmHg 82%
02:00 +30°C° 1.8 mm 7 m/s 730 mmHg 85%
03:00 +30°C° 0.5 mm 5 m/s 730 mmHg 86%
04:00 +29°C° 0.5 mm 4 m/s 730 mmHg 86%
05:00 +29°C° 0.5 mm 2 m/s 730 mmHg 86%
06:00 +30°C° 0 mm 2 m/s 731 mmHg 82%
07:00 +31°C° 0 mm 3 m/s 731 mmHg 78%
08:00 +33°C° 0 mm 3 m/s 732 mmHg 74%
09:00 +34°C° 0.5 mm 3 m/s 732 mmHg 70%
10:00 +36°C° 0.5 mm 4 m/s 732 mmHg 65%
11:00 +37°C° 0.5 mm 4 m/s 732 mmHg 60%
12:00 +38°C° 0.1 mm 4 m/s 731 mmHg 58%
13:00 +38°C° 0.1 mm 3 m/s 730 mmHg 55%
14:00 +39°C° 0.1 mm 3 m/s 730 mmHg 52%
15:00 +38°C° 0.1 mm 2 m/s 729 mmHg 54%
16:00 +38°C° 0.1 mm 2 m/s 729 mmHg 55%
17:00 +38°C° 0.1 mm 2 m/s 728 mmHg 57%
18:00 +37°C° 0 mm 2 m/s 729 mmHg 60%
19:00 +36°C° 0 mm 2 m/s 729 mmHg 64%
20:00 +34°C° 0 mm 2 m/s 729 mmHg 68%
21:00 +34°C° 0.4 mm 2 m/s 730 mmHg 70%
22:00 +34°C° 0.4 mm 2 m/s 730 mmHg 72%
23:00 +32°C° 0.4 mm 2 m/s 730 mmHg 74%

18 August, Marţi

Timp Temperatura Precipitaţii Vânt Presiune Umiditate
00:00 +32°C° 1.1 mm 2 m/s 730 mmHg 76%
01:00 +31°C° 1.1 mm 2 m/s 730 mmHg 79%
02:00 +31°C° 1.1 mm 3 m/s 730 mmHg 81%
03:00 +31°C° 1.6 mm 3 m/s 730 mmHg 82%
04:00 +31°C° 1.6 mm 3 m/s 730 mmHg 83%
05:00 +30°C° 1.6 mm 3 m/s 730 mmHg 84%
06:00 +31°C° 0 mm 3 m/s 731 mmHg 80%
07:00 +33°C° 0 mm 4 m/s 731 mmHg 77%
08:00 +34°C° 0 mm 4 m/s 731 mmHg 74%
09:00 +35°C° 0.1 mm 4 m/s 731 mmHg 69%
10:00 +36°C° 0.1 mm 4 m/s 731 mmHg 63%
11:00 +38°C° 0.1 mm 4 m/s 731 mmHg 58%
12:00 +38°C° 0.2 mm 3 m/s 730 mmHg 57%
13:00 +38°C° 0.2 mm 3 m/s 730 mmHg 55%
14:00 +39°C° 0.2 mm 3 m/s 729 mmHg 53%
15:00 +38°C° 0 mm 3 m/s 729 mmHg 55%
16:00 +38°C° 0 mm 2 m/s 729 mmHg 57%
17:00 +38°C° 0 mm 2 m/s 728 mmHg 59%
18:00 +37°C° 0 mm 2 m/s 729 mmHg 63%
19:00 +35°C° 0 mm 2 m/s 729 mmHg 66%
20:00 +34°C° 0 mm 3 m/s 730 mmHg 70%
21:00 +34°C° 0.2 mm 3 m/s 730 mmHg 72%
22:00 +32°C° 0.2 mm 2 m/s 730 mmHg 75%
23:00 +32°C° 0.2 mm 2 m/s 731 mmHg 77%

19 August, Miercuri

Timp Temperatura Precipitaţii Vânt Presiune Umiditate
00:00 +32°C° 1.8 mm 2 m/s 730 mmHg 79%
01:00 +31°C° 1.8 mm 2 m/s 730 mmHg 82%
02:00 +31°C° 1.8 mm 2 m/s 730 mmHg 84%
03:00 +31°C° 1.1 mm 2 m/s 730 mmHg 84%
04:00 +30°C° 1.1 mm 2 m/s 730 mmHg 85%
05:00 +30°C° 1.1 mm 2 m/s 730 mmHg 86%
06:00 +31°C° 1.4 mm 2 m/s 730 mmHg 84%
07:00 +31°C° 1.4 mm 3 m/s 730 mmHg 81%
08:00 +33°C° 1.4 mm 3 m/s 731 mmHg 79%
09:00 +34°C° 1.2 mm 4 m/s 730 mmHg 75%
10:00 +35°C° 1.2 mm 4 m/s 730 mmHg 71%
11:00 +35°C° 1.2 mm 5 m/s 730 mmHg 68%
12:00 +36°C° 0.8 mm 5 m/s 730 mmHg 65%
13:00 +36°C° 0.8 mm 4 m/s 730 mmHg 63%
14:00 +37°C° 0.8 mm 4 m/s 729 mmHg 61%
15:00 +36°C° 3.4 mm 4 m/s 729 mmHg 67%
16:00 +34°C° 3.4 mm 3 m/s 729 mmHg 73%
17:00 +33°C° 3.4 mm 3 m/s 728 mmHg 79%
18:00 +32°C° 1.6 mm 4 m/s 729 mmHg 81%
19:00 +32°C° 1.6 mm 5 m/s 730 mmHg 83%
20:00 +30°C° 1.6 mm 7 m/s 730 mmHg 85%
21:00 +30°C° 0 mm 6 m/s 730 mmHg 85%
22:00 +30°C° 0 mm 5 m/s 731 mmHg 85%
23:00 +30°C° 0 mm 4 m/s 731 mmHg 85%
Arată mai mult